Selinsgrove, PA

3:34 PM EST on February 24, 2017 (GMT -0500)
Penn Valley

Weather History for KSEG - September, 2013

Change the Weather History Date:

Tuesday, September 3, 2013

  Actual Average (KIPT) Record (KIPT)
Temperature  
Mean Temperature 70 °F -  
Max Temperature 79 °F 77 °F 102 °F (1953)
Min Temperature 59 °F 56 °F 42 °F (1967)
Cooling Degree Days 5    
Growing Degree Days 20 (Base 50)    
Moisture  
Dew Point 58 °F    
Average Humidity 68    
Maximum Humidity 93    
Minimum Humidity 44    
Precipitation  
Precipitation 0.00 in - - ()
Sea Level Pressure  
Sea Level Pressure 29.86 in    
Wind  
Wind Speed 4 mph (WNW)    
Max Wind Speed 10 mph    
Max Gust Speed 18 mph    
Visibility 9 miles    
Events      
Averages and records for this station are not official NWS values.
T = Trace of Precipitation, MM = Missing Value Source: NWS Daily Summary

Daily Weather History Graph

Daily Weather History Graph

Search for Another Location

Airport or City:

Trip Planner

Search our weather history database for the weather conditions in past years. The results will help you decide how hot, cold, wet, or windy it might be!

Date:

Astronomy

Sep. 03, 2013 Rise Set
Actual Time 6:36 AM EDT 7:36 PM EDT
Civil Twilight 6:08 AM EDT 8:04 PM EDT
Nautical Twilight 5:35 AM EDT 8:37 PM EDT
Astronomical Twilight 5:00 AM EDT 9:11 PM EDT
Moon 4:47 AM EDT (9/3) 6:22 PM EDT (9/3)
Length of Visible Light 13h 55m
Length of Day
12h 59m
Waning Crescent, 3% of the Moon is Illuminated
Sep 3
Waning Crescent
Sep 5
New
Sep 12
First Quarter
Sep 19
Full
Sep 26
Last Quarter

Hourly Weather History & Observations

Time (EDT) Temp. Dew Point Humidity Pressure Visibility Wind Dir Wind Speed Gust Speed Precip Events Conditions
12:53 AM 70.0 °F 66.9 °F 90% 29.76 in 5.0 mi Calm Calm - N/A   Clear
1:53 AM 66.9 °F 64.9 °F 93% 29.76 in 4.0 mi Calm Calm - N/A   Clear
2:53 AM 68.0 °F 66.0 °F 93% 29.77 in 4.0 mi WNW 3.5 mph - N/A   Overcast
3:53 AM 70.0 °F 64.0 °F 81% 29.78 in 10.0 mi WNW 4.6 mph - N/A   Overcast
5:53 AM 69.1 °F 61.0 °F 75% 29.81 in 10.0 mi WNW 10.4 mph - N/A   Mostly Cloudy
6:53 AM 66.0 °F 60.1 °F 81% 29.83 in 10.0 mi NW 3.5 mph - N/A   Clear
7:53 AM 66.9 °F 61.0 °F 81% 29.85 in 10.0 mi Calm Calm - N/A   Clear
8:53 AM 71.1 °F 61.0 °F 70% 29.86 in 10.0 mi NW 3.5 mph - N/A   Partly Cloudy
9:53 AM 73.0 °F 57.9 °F 59% 29.87 in 10.0 mi WNW 8.1 mph - N/A   Scattered Clouds
10:53 AM 73.9 °F 57.9 °F 57% 29.86 in 10.0 mi WNW 6.9 mph - N/A   Mostly Cloudy
11:53 AM 73.9 °F 55.9 °F 53% 29.87 in 10.0 mi WNW 8.1 mph - N/A   Mostly Cloudy
12:53 PM 75.9 °F 55.9 °F 50% 29.86 in 10.0 mi WNW 9.2 mph 17.3 mph N/A   Partly Cloudy
2:53 PM 79.0 °F 55.0 °F 44% 29.85 in 10.0 mi NW 10.4 mph 17.3 mph N/A   Partly Cloudy
3:53 PM 75.9 °F 53.1 °F 45% 29.86 in 10.0 mi NW 9.2 mph 18.4 mph N/A   Mostly Cloudy
4:53 PM 73.9 °F 54.0 °F 50% 29.87 in 10.0 mi WNW 5.8 mph - N/A   Overcast
5:53 PM 73.0 °F 54.0 °F 51% 29.88 in 10.0 mi West 6.9 mph - N/A   Partly Cloudy
6:53 PM 71.1 °F 54.0 °F 55% 29.89 in 10.0 mi West 6.9 mph - N/A   Overcast
7:53 PM 69.1 °F 55.0 °F 61% 29.92 in 10.0 mi WNW 3.5 mph - N/A   Overcast
8:53 PM 66.9 °F 55.9 °F 68% 29.94 in 10.0 mi Calm Calm - N/A   Overcast
9:53 PM 66.9 °F 55.0 °F 66% 29.96 in 10.0 mi WNW 5.8 mph - N/A   Overcast
10:53 PM 61.0 °F 57.0 °F 87% 29.97 in 8.0 mi Calm Calm - N/A   Partly Cloudy
11:53 PM 59.0 °F 57.0 °F 93% 29.98 in 10.0 mi Calm Calm - N/A   Scattered Clouds